When you browse on this site, cookies collect data to enhance your experience and personalize the content and advertising you see.
Visit our Privacy Policy to learn more. By continuing to use the site, you agree to this use of cookies and data.

Hourly Weather Verona

Today, 2 July, Thursday

Time Temperature Precipitation Wind Pressure Humidity
00:00 +23°C° 0.6 mm 2 mps 754 mmHg 83%
01:00 +23°C° 0 mm 2 mps 754 mmHg 84%
02:00 +23°C° 0.2 mm 2 mps 754 mmHg 83%
03:00 +22°C° 0.2 mm 1 mps 753 mmHg 83%
04:00 +22°C° 0.2 mm 1 mps 753 mmHg 83%
05:00 +23°C° 0 mm 1 mps 753 mmHg 81%
06:00 +24°C° 0 mm 1 mps 753 mmHg 79%
07:00 +25°C° 0 mm 1 mps 753 mmHg 77%
08:00 +26°C° 0.2 mm 1 mps 753 mmHg 72%
09:00 +28°C° 0.2 mm 1 mps 753 mmHg 67%
10:00 +29°C° 0.2 mm 1 mps 753 mmHg 63%
11:00 +30°C° 0.4 mm 1 mps 753 mmHg 61%
12:00 +31°C° 0.4 mm 1 mps 753 mmHg 59%
13:00 +31°C° 0 mm 1 mps 753 mmHg 56%
14:00 +31°C° 0.3 mm 1 mps 752 mmHg 56%
15:00 +31°C° 0.3 mm 1 mps 752 mmHg 55%
16:00 +31°C° 0.3 mm 1 mps 751 mmHg 55%
17:00 +30°C° 0.2 mm 1 mps 751 mmHg 60%
18:00 +30°C° 0.2 mm 2 mps 751 mmHg 65%
19:00 +29°C° 0.2 mm 2 mps 752 mmHg 70%
20:00 +27°C° 0.8 mm 2 mps 752 mmHg 75%
21:00 +26°C° 0.8 mm 2 mps 752 mmHg 79%
22:00 +24°C° 0.8 mm 2 mps 752 mmHg 84%
23:00 +24°C° 1.1 mm 2 mps 752 mmHg 85%

Tomorrow, 3 July, Friday

Time Temperature Precipitation Wind Pressure Humidity
00:00 +23°C° 1.1 mm 2 mps 752 mmHg 86%
01:00 +23°C° 1.1 mm 2 mps 753 mmHg 87%
02:00 +23°C° 0.6 mm 2 mps 752 mmHg 87%
03:00 +23°C° 0.6 mm 2 mps 752 mmHg 87%
04:00 +21°C° 0.6 mm 2 mps 752 mmHg 87%
05:00 +23°C° 1.2 mm 2 mps 752 mmHg 86%
06:00 +23°C° 1.2 mm 2 mps 753 mmHg 85%
07:00 +24°C° 1.2 mm 2 mps 753 mmHg 84%
08:00 +25°C° 0.9 mm 2 mps 753 mmHg 79%
09:00 +26°C° 0.9 mm 3 mps 753 mmHg 73%
10:00 +28°C° 0.9 mm 3 mps 754 mmHg 68%
11:00 +28°C° 1.9 mm 4 mps 754 mmHg 68%
12:00 +28°C° 1.9 mm 5 mps 754 mmHg 68%
13:00 +28°C° 1.9 mm 6 mps 754 mmHg 69%
14:00 +27°C° 0.9 mm 6 mps 754 mmHg 69%
15:00 +26°C° 0.9 mm 6 mps 754 mmHg 70%
16:00 +26°C° 0.9 mm 6 mps 754 mmHg 71%
17:00 +25°C° 0.9 mm 5 mps 754 mmHg 74%
18:00 +23°C° 0.9 mm 4 mps 754 mmHg 76%
19:00 +22°C° 0.9 mm 4 mps 755 mmHg 79%
20:00 +22°C° 1 mm 3 mps 755 mmHg 80%
21:00 +21°C° 1 mm 2 mps 756 mmHg 82%
22:00 +20°C° 1 mm 2 mps 756 mmHg 83%
23:00 +20°C° 0.2 mm 2 mps 756 mmHg 83%

Day after tomorrow, 4 July, Saturday

Time Temperature Precipitation Wind Pressure Humidity
00:00 +20°C° 0.2 mm 2 mps 757 mmHg 83%
01:00 +19°C° 0.2 mm 2 mps 757 mmHg 83%
02:00 +19°C° 0 mm 2 mps 757 mmHg 81%
03:00 +19°C° 0 mm 2 mps 757 mmHg 80%
04:00 +20°C° 0 mm 2 mps 757 mmHg 78%
05:00 +20°C° 0 mm 2 mps 757 mmHg 76%
06:00 +22°C° 0 mm 1 mps 757 mmHg 74%
07:00 +23°C° 0 mm 1 mps 757 mmHg 72%
08:00 +25°C° 0 mm 1 mps 757 mmHg 66%
09:00 +26°C° 0 mm 1 mps 757 mmHg 61%
10:00 +27°C° 0 mm 2 mps 757 mmHg 55%
11:00 +28°C° 0 mm 2 mps 757 mmHg 54%
12:00 +28°C° 0 mm 2 mps 757 mmHg 53%
13:00 +29°C° 0 mm 2 mps 757 mmHg 52%
14:00 +29°C° 0 mm 2 mps 757 mmHg 52%
15:00 +29°C° 0 mm 2 mps 756 mmHg 52%
16:00 +29°C° 0 mm 2 mps 756 mmHg 52%
17:00 +28°C° 0 mm 2 mps 756 mmHg 57%
18:00 +28°C° 0 mm 1 mps 756 mmHg 61%
19:00 +27°C° 0 mm 1 mps 756 mmHg 66%
20:00 +25°C° 0 mm 1 mps 756 mmHg 67%
21:00 +24°C° 0 mm 1 mps 757 mmHg 68%
22:00 +23°C° 0 mm 1 mps 758 mmHg 69%
23:00 +23°C° 0 mm 1 mps 758 mmHg 70%

5 July, Sunday

Time Temperature Precipitation Wind Pressure Humidity
00:00 +23°C° 0 mm 1 mps 758 mmHg 70%
01:00 +23°C° 0 mm 1 mps 758 mmHg 71%
02:00 +22°C° 0 mm 1 mps 758 mmHg 72%
03:00 +22°C° 0 mm 1 mps 758 mmHg 74%
04:00 +22°C° 0 mm 1 mps 758 mmHg 75%
05:00 +23°C° 0 mm 1 mps 757 mmHg 74%
06:00 +24°C° 0 mm 1 mps 757 mmHg 74%
07:00 +24°C° 0 mm 1 mps 757 mmHg 73%
08:00 +26°C° 0 mm 1 mps 757 mmHg 69%
09:00 +27°C° 0 mm 1 mps 757 mmHg 64%
10:00 +29°C° 0 mm 1 mps 757 mmHg 60%
11:00 +29°C° 0 mm 1 mps 757 mmHg 58%
12:00 +30°C° 0 mm 1 mps 757 mmHg 57%
13:00 +31°C° 0 mm 1 mps 756 mmHg 55%
14:00 +31°C° 0 mm 1 mps 756 mmHg 54%
15:00 +31°C° 0 mm 1 mps 756 mmHg 54%
16:00 +31°C° 0 mm 1 mps 756 mmHg 53%
17:00 +30°C° 0 mm 1 mps 756 mmHg 58%
18:00 +29°C° 0 mm 1 mps 755 mmHg 63%
19:00 +28°C° 0 mm 1 mps 755 mmHg 68%
20:00 +27°C° 0 mm 1 mps 756 mmHg 70%
21:00 +26°C° 0 mm 1 mps 756 mmHg 72%
22:00 +25°C° 0 mm 1 mps 756 mmHg 75%
23:00 +24°C° 0 mm 1 mps 756 mmHg 76%

6 July, Monday

Time Temperature Precipitation Wind Pressure Humidity
00:00 +24°C° 0 mm 1 mps 756 mmHg 77%
01:00 +24°C° 0 mm 1 mps 756 mmHg 78%
02:00 +23°C° 0 mm 1 mps 756 mmHg 79%
03:00 +23°C° 0 mm 1 mps 755 mmHg 80%
04:00 +23°C° 0 mm 1 mps 755 mmHg 81%
05:00 +24°C° 0 mm 1 mps 755 mmHg 78%
06:00 +25°C° 0 mm 1 mps 755 mmHg 75%
07:00 +26°C° 0 mm 1 mps 754 mmHg 73%
08:00 +28°C° 0 mm 1 mps 754 mmHg 67%
09:00 +29°C° 0 mm 1 mps 754 mmHg 61%
10:00 +31°C° 0 mm 1 mps 754 mmHg 55%
11:00 +31°C° 0 mm 1 mps 753 mmHg 52%
12:00 +32°C° 0 mm 1 mps 753 mmHg 49%
13:00 +32°C° 0 mm 2 mps 752 mmHg 47%
14:00 +32°C° 0 mm 2 mps 752 mmHg 47%
15:00 +32°C° 0 mm 2 mps 751 mmHg 48%
16:00 +32°C° 0 mm 2 mps 751 mmHg 48%
17:00 +31°C° 0 mm 2 mps 751 mmHg 54%
18:00 +30°C° 0 mm 2 mps 751 mmHg 59%
19:00 +29°C° 0 mm 2 mps 750 mmHg 65%
20:00 +28°C° 0 mm 1 mps 751 mmHg 66%
21:00 +27°C° 0 mm 1 mps 751 mmHg 67%
22:00 +26°C° 0 mm 1 mps 751 mmHg 68%
23:00 +25°C° 0.2 mm 1 mps 751 mmHg 69%

7 July, Tuesday

Time Temperature Precipitation Wind Pressure Humidity
00:00 +25°C° 0.2 mm 2 mps 751 mmHg 69%
01:00 +25°C° 0.2 mm 2 mps 751 mmHg 69%
02:00 +23°C° 1 mm 4 mps 751 mmHg 74%
03:00 +22°C° 1 mm 5 mps 752 mmHg 78%
04:00 +21°C° 1 mm 6 mps 752 mmHg 83%
05:00 +20°C° 1.6 mm 6 mps 753 mmHg 84%
06:00 +19°C° 1.6 mm 5 mps 753 mmHg 85%
07:00 +17°C° 1.6 mm 5 mps 754 mmHg 86%
08:00 +18°C° 0.6 mm 4 mps 755 mmHg 85%
09:00 +18°C° 0.6 mm 4 mps 756 mmHg 84%
10:00 +18°C° 0.6 mm 4 mps 756 mmHg 83%
11:00 +18°C° 0.1 mm 4 mps 756 mmHg 81%
12:00 +18°C° 0.1 mm 3 mps 756 mmHg 79%
13:00 +19°C° 0.1 mm 3 mps 756 mmHg 77%
14:00 +20°C° 0 mm 3 mps 756 mmHg 74%
15:00 +21°C° 0 mm 2 mps 756 mmHg 70%
16:00 +23°C° 0 mm 2 mps 756 mmHg 66%
17:00 +21°C° 0 mm 2 mps 756 mmHg 69%
18:00 +22°C° 0 mm 1 mps 756 mmHg 71%
19:00 +22°C° 0 mm 1 mps 757 mmHg 74%
20:00 +21°C° 0 mm 1 mps 757 mmHg 75%
21:00 +20°C° 0 mm 1 mps 758 mmHg 76%
22:00 +19°C° 0 mm 1 mps 759 mmHg 77%
23:00 +19°C° 0 mm 1 mps 759 mmHg 75%
Show more